Temp_Advection
nan nan nan nan nan nan nan nan nan nan nan nan nan nan nan nan nan nan nan nan nan nan nan nan nan nan nan nan nan nan nan nan nan nan nan nan nan nan nan nan nan nan nan nan
nan -0 0 0 -0 0 -0 -0 -0 -0 -1 -1 0 0 0 0 0 0 1 0 1 1 1 0 0 0 0 0 0 0 0 0 0 0 0 0 0 0 0 0 0 0 1 nan
nan 1 2 0 -1 -1 -0 -0 1 -0 -1 -0 0 0 1 1 0 1 1 1 1 1 1 0 0 0 -0 -0 -0 -0 -0 -0 0 0 0 0 0 0 0 0 0 0 0 nan
nan 0 -1 -1 -1 0 0 -0 -0 -0 -0 -0 0 1 0 1 1 1 1 0 0 0 0 0 0 0 -0 -0 0 0 0 -0 -0 0 0 0 0 0 0 0 0 0 0 nan
nan -1 -1 -1 -0 0 -0 -0 -1 -0 -0 0 1 0 0 1 1 1 1 1 0 0 0 0 0 0 0 -0 -0 -0 -0 0 -0 -0 -0 -0 -0 -0 -0 0 0 0 0 nan
nan 0 -1 -1 -1 -0 1 0 -1 0 0 0 0 0 0 1 2 1 1 1 1 0 0 0 0 0 -0 -0 -0 -0 -0 0 0 0 -0 -0 0 0 0 0 0 0 0 nan
nan -0 -1 -1 -0 1 1 -1 -0 0 0 0 1 1 1 1 1 1 1 1 0 0 0 0 0 0 -0 -0 -0 0 0 -0 -0 -0 0 0 0 -0 0 0 -0 -0 -0 nan
nan -0 -2 -1 0 0 -1 -0 0 0 0 0 1 1 1 1 0 0 0 0 0 0 0 0 0 0 -0 -0 -0 0 0 0 0 0 -0 -0 -0 0 -0 -0 0 -0 0 nan
nan -0 -1 0 0 -1 -0 0 0 0 0 1 1 1 0 0 0 0 0 -0 0 0 0 0 0 0 0 0 0 0 0 0 0 0 0 0 0 0 0 0 0 0 -0 nan
nan -1 -0 0 0 -0 0 1 1 1 1 1 1 1 0 0 0 -0 -0 0 0 0 0 1 1 1 0 0 0 0 0 0 0 0 0 0 0 -0 0 0 0 0 0 nan
nan -1 0 0 -0 -0 1 1 1 0 1 1 1 1 0 0 0 0 0 1 1 1 0 0 1 1 0 0 0 0 0 0 0 0 0 0 0 0 -0 -0 0 0 0 nan
nan -1 -0 -0 -0 1 1 1 1 0 1 1 1 1 1 0 0 1 1 1 1 1 1 0 1 1 1 1 0 0 0 0 0 0 0 0 0 -0 -0 -0 -0 -0 0 nan
nan 0 0 -0 0 -1 0 1 1 1 1 1 1 1 1 1 1 1 1 1 1 1 1 1 1 1 0 0 0 -0 0 0 0 0 0 0 0 0 0 -1 -1 -1 -1 nan
nan 1 -0 -1 1 1 0 1 1 1 1 1 1 1 2 1 1 1 1 1 1 1 1 1 0 0 1 1 0 0 0 0 0 0 -0 0 0 0 0 0 -0 -0 -0 nan
nan 1 0 0 0 0 0 1 1 1 2 2 2 2 2 1 1 1 1 1 1 1 0 1 0 0 0 0 0 0 0 0 -0 0 0 0 0 0 0 0 0 -0 0 nan
nan 0 -0 -0 0 0 1 1 1 1 2 2 2 2 1 1 1 1 1 1 0 -0 0 0 0 -0 -0 0 0 0 0 0 0 0 0 0 0 0 0 0 -0 -0 -0 nan
nan 0 0 0 0 0 1 1 1 1 1 2 2 2 1 1 1 1 1 1 1 0 -0 0 0 0 -0 -0 0 0 -0 -0 0 0 0 0 0 0 0 0 0 -0 -0 nan
nan -1 -0 0 1 1 1 1 1 1 1 2 2 2 2 1 0 -0 -0 -0 0 0 0 0 0 0 0 0 0 0 0 0 0 0 0 0 0 0 1 0 -0 -0 -0 nan
nan -1 -0 0 0 0 0 1 1 2 2 2 1 1 1 0 -0 -0 0 0 0 0 0 0 0 0 0 0 0 0 0 0 0 0 0 0 0 0 0 0 0 -0 -0 nan
nan -0 0 1 1 1 1 1 1 1 1 1 1 0 0 1 0 0 0 0 1 0 0 0 0 0 0 0 0 0 0 0 0 0 -0 0 1 0 -0 -0 -0 -0 -0 nan
nan -0 0 -0 0 1 0 1 0 -0 0 1 0 -0 -0 0 0 0 0 -0 -0 0 0 0 -0 -0 -0 -0 -0 -0 -0 0 0 0 0 -0 -0 -0 -0 -0 -0 -0 -0 nan
nan -0 0 0 0 1 1 1 0 0 0 0 -0 0 -0 -0 0 0 0 0 -0 -0 -0 -0 -0 -0 -0 -0 0 0 0 0 0 -0 -0 0 0 -0 -0 -0 -0 -0 -0 nan
nan 1 1 0 -1 0 1 0 0 -0 -0 -0 0 0 -0 -0 -0 -0 -0 -0 -0 -0 -0 -0 -0 -0 -0 0 0 0 0 0 -0 0 0 0 0 0 0 0 0 -0 -0 nan
nan -0 -0 1 1 -1 -1 -0 0 -0 -0 -0 -0 -0 -0 -0 -0 -0 -0 0 0 -0 -0 -0 -0 -0 -0 0 0 -0 -0 -0 -0 -0 0 0 0 0 0 0 0 -0 -0 nan
nan 0 0 -0 -1 -1 -0 -0 -0 -0 -0 -0 -0 -0 -0 -0 -0 -0 -0 -0 -0 -0 -0 -1 -0 -0 -0 0 0 0 -0 -0 0 0 0 -0 -0 0 0 0 0 0 -1 nan
nan -1 -0 -0 -0 -0 -0 -0 -0 -0 -1 -1 -0 -0 -0 -0 -0 -0 -0 -0 -0 -0 0 -0 -0 -0 -0 -0 -0 0 -0 -0 -0 0 0 -0 -0 -0 0 0 0 0 -0 nan
nan nan nan nan nan nan nan nan nan nan nan nan nan nan nan nan nan nan nan nan nan nan nan nan nan nan nan nan nan nan nan nan nan nan nan nan nan nan nan nan nan nan nan nan
Wind_Speed
24 20 20 22 24 22 20 18 18 17 18 16 13 8 9 8 4 6 9 9 9 11 11 11 12 12 12 12 12 11 10 9 9 7 8 7 7 7 7 10 11 11 11 12
22 22 21 19 18 20 22 23 21 21 21 16 17 9 6 9 6 9 9 9 10 12 12 11 12 12 12 12 11 10 11 10 8 7 6 6 7 10 11 11 11 10 8 10
17 20 19 19 17 19 19 21 17 18 20 16 17 12 12 14 11 11 11 14 14 14 14 15 15 14 13 13 12 12 10 8 6 6 5 4 5 4 4 3 3 5 5 10
10 4 14 10 16 22 22 20 19 19 18 16 13 13 7 7 13 14 16 17 17 17 17 16 16 16 15 13 12 11 9 8 7 7 6 7 6 5 4 4 3 2 6 11
9 11 13 18 13 12 15 17 17 17 16 17 11 4 6 9 14 18 19 19 19 18 17 17 16 15 15 14 13 12 12 11 11 11 12 11 12 10 9 8 7 6 5 6
7 15 18 12 16 15 14 14 13 14 13 8 7 8 10 20 21 21 20 20 20 18 17 17 16 15 15 15 14 14 14 14 14 13 13 11 10 10 9 6 5 2 4 7
13 9 9 11 13 15 13 12 6 5 6 10 10 15 9 25 23 23 22 21 20 18 17 16 16 16 16 16 15 15 15 15 14 12 11 8 5 4 3 1 2 2 3 3
10 12 14 8 10 14 15 17 7 9 11 12 11 12 24 26 27 27 25 22 20 19 18 17 16 16 16 16 15 13 12 11 10 7 6 7 7 5 4 2 1 1 3 4
8 6 9 19 20 23 22 13 10 13 12 12 20 23 26 28 28 27 25 22 20 20 20 18 17 16 17 16 14 13 12 11 10 9 7 6 5 3 2 1 0 3 4 5
9 9 13 11 20 17 15 17 14 12 12 17 25 26 28 29 28 27 25 24 22 21 20 19 17 16 16 15 14 13 13 11 10 8 6 5 3 2 1 2 4 5 5 6
17 19 20 15 15 22 17 13 13 11 14 20 24 28 31 31 29 28 26 24 23 22 21 19 18 16 15 15 14 14 12 10 9 7 6 4 4 3 3 8 8 8 10 10
9 15 13 16 16 18 18 20 15 16 16 21 25 29 30 30 29 28 27 26 24 22 21 20 18 17 15 14 13 12 11 10 9 7 6 3 2 6 7 9 9 11 12 12
14 11 10 18 17 13 14 15 17 17 19 22 25 27 29 29 28 28 26 25 23 22 20 19 17 16 13 14 13 11 9 8 7 5 4 4 2 3 2 12 14 15 16 16
23 11 10 15 13 10 9 9 13 15 17 20 22 24 25 25 25 25 24 22 21 21 20 18 16 14 12 11 10 10 8 7 5 3 3 2 3 4 4 5 6 7 12 18
9 10 12 8 7 7 5 8 10 14 18 21 21 23 23 23 23 22 20 21 21 20 19 18 17 14 12 10 8 7 5 4 4 5 5 6 6 5 5 6 7 8 9 10
4 6 7 8 7 6 8 11 13 15 16 20 23 22 23 23 23 24 22 21 22 21 21 19 16 11 9 7 4 3 3 4 4 5 6 5 5 5 6 7 8 8 10 11
8 8 8 9 9 8 10 10 12 14 15 19 23 25 25 29 31 31 28 25 22 22 20 16 11 7 6 5 4 3 4 5 6 6 7 8 8 8 8 8 9 9 10 13
9 8 6 7 9 9 9 11 16 19 22 25 28 35 38 35 29 25 27 25 22 19 15 12 9 7 6 6 6 6 6 7 8 9 9 10 11 10 10 10 9 10 11 12
8 6 8 9 8 12 15 18 21 24 28 32 37 35 31 27 28 28 25 21 18 15 12 8 7 6 5 5 7 7 8 9 10 11 11 12 11 10 10 9 10 11 12 13
6 7 8 12 14 13 18 19 22 24 24 26 27 30 32 31 28 24 20 18 13 10 7 6 3 4 6 6 8 9 10 10 10 11 12 12 11 12 10 12 12 12 13 13
17 16 18 19 21 23 22 21 24 26 27 31 32 31 31 28 22 18 14 13 9 8 5 3 4 6 7 9 10 10 11 11 11 11 11 10 10 10 11 11 12 13 14 14
27 28 29 29 30 31 29 30 30 30 28 26 24 24 24 21 16 12 8 5 4 1 1 3 5 8 11 11 11 11 11 11 11 10 10 11 11 11 12 12 13 14 14 15
32 32 32 33 32 31 30 29 27 25 25 23 21 18 16 14 11 7 5 2 2 2 4 7 10 12 13 12 11 11 10 11 11 11 11 11 12 12 13 14 14 15 15 15
32 32 31 29 28 27 30 26 23 21 19 17 15 12 9 6 4 2 1 1 3 5 8 10 12 14 14 12 11 11 11 10 11 12 13 14 13 14 14 15 15 15 16 16
29 28 27 27 28 25 23 20 19 17 14 13 11 9 6 5 1 2 2 4 4 4 9 13 13 13 13 10 11 12 11 11 13 14 14 13 14 15 15 16 16 16 18 19
25 25 26 25 23 20 18 17 17 15 12 11 10 8 7 6 5 4 5 6 8 7 7 9 12 14 11 10 12 12 13 13 13 13 15 14 15 15 16 16 17 17 18 19
22 20 19 20 19 17 15 14 13 12 10 10 7 8 7 6 8 6 6 6 7 9 9 9 10 12 13 12 12 13 14 14 14 15 15 15 15 15 16 16 16 19 21 21
Wind_Direction
234 237 233 223 217 224 234 232 234 242 245 258 258 258 290 12 150 210 209 206 198 188 174 165 157 154 154 153 154 156 160 166 177 184 194 200 216 249 279 272 265 257 256 243
228 229 237 241 238 231 235 231 240 247 255 265 281 284 250 248 233 212 190 180 173 167 161 155 147 145 138 136 133 133 134 140 146 154 155 168 189 206 226 235 246 254 245 220
234 225 237 242 237 255 246 247 242 246 256 263 256 240 243 254 218 199 176 161 154 148 142 136 133 130 124 122 123 123 125 125 138 142 166 188 194 200 206 220 248 243 248 234
213 221 223 236 235 235 241 250 246 247 248 263 275 269 301 230 204 183 165 154 148 142 135 128 125 122 119 119 119 120 122 123 128 136 140 131 131 135 123 121 129 195 219 223
217 223 245 236 225 228 244 245 243 253 252 242 256 163 198 204 183 174 164 155 148 144 136 130 126 126 124 122 120 119 116 116 116 118 116 114 111 109 106 113 127 147 168 198
195 229 231 230 245 215 248 251 249 245 242 246 186 218 237 180 167 162 162 157 149 142 136 132 129 129 125 122 121 118 118 118 117 119 119 123 139 128 144 143 162 204 259 274
217 233 244 220 238 193 214 250 244 227 257 254 233 231 178 163 165 164 162 155 147 142 141 138 138 135 129 126 124 124 124 125 130 131 132 133 126 127 135 162 36 342 335 298
231 229 235 240 156 212 235 249 222 241 251 260 223 162 159 163 164 163 160 157 153 149 145 144 142 140 136 134 135 135 133 131 132 130 117 106 103 109 112 128 147 324 292 303
212 236 224 196 216 224 249 271 217 236 238 217 172 171 169 167 168 166 164 160 157 154 148 147 149 148 144 142 142 138 136 131 128 119 116 119 127 123 150 171 248 266 296 299
274 260 252 229 232 253 240 242 249 231 222 200 184 180 175 172 171 167 167 166 163 159 154 150 151 152 149 145 146 142 138 136 137 137 131 128 126 111 127 260 286 296 302 297
251 255 269 277 256 245 235 242 231 224 209 196 186 185 180 175 174 172 170 169 167 163 159 154 152 149 149 148 149 148 149 149 153 156 142 136 208 231 261 285 292 290 286 296
247 250 282 265 286 253 230 229 230 220 199 192 190 187 182 178 175 173 172 170 168 166 160 156 153 149 149 152 154 153 157 162 171 173 168 155 166 304 293 290 294 300 302 303
246 269 255 271 285 293 239 231 223 217 208 193 189 188 185 178 175 174 170 170 169 163 159 153 149 144 144 154 156 157 162 174 185 185 180 205 241 258 269 307 312 318 318 318
250 258 272 258 265 266 248 225 217 208 197 193 185 184 182 176 170 167 167 165 161 156 151 148 142 142 147 155 166 176 179 180 172 187 221 248 259 269 281 284 291 300 313 310
254 249 263 264 250 246 209 189 193 193 179 175 176 175 174 170 163 161 159 156 151 146 143 146 149 139 143 144 150 157 166 191 226 259 263 264 271 282 285 291 292 295 300 307
264 260 267 257 244 215 199 176 181 175 173 167 164 166 164 158 155 148 141 148 146 139 143 146 134 140 144 145 163 196 232 261 268 275 284 282 285 284 283 289 292 295 299 297
273 269 275 252 233 210 206 163 171 162 162 163 157 151 150 145 142 145 145 149 153 145 138 139 132 145 160 163 182 214 260 276 278 279 271 277 281 286 287 290 293 294 298 299
308 305 295 259 214 184 158 155 148 150 152 156 159 158 155 156 149 150 149 145 141 145 153 150 156 175 203 230 240 259 274 283 282 276 279 283 287 288 287 290 294 297 298 297
17 31 74 96 128 135 137 142 151 160 161 162 162 158 156 154 146 143 145 149 145 146 146 158 188 215 231 254 271 283 287 287 286 286 284 290 295 292 292 293 295 298 302 303
52 88 105 117 132 151 139 138 143 147 149 154 150 143 136 136 136 139 145 136 141 149 152 174 210 263 272 281 289 292 293 291 288 287 289 291 291 290 297 302 306 304 301 302
78 82 88 97 104 107 112 126 127 126 132 135 132 133 133 131 135 137 139 135 136 148 174 220 260 280 295 307 307 302 298 293 292 292 293 293 295 300 299 303 302 300 300 301
94 97 100 105 106 109 115 119 121 127 127 126 127 126 123 125 131 131 125 131 146 147 289 284 310 316 318 317 304 301 299 297 295 294 294 293 295 298 300 301 300 300 299 303
96 100 102 102 102 102 106 107 110 113 112 113 114 114 114 111 97 80 92 73 64 311 301 300 313 316 316 313 302 301 299 297 299 293 292 293 295 295 297 297 297 300 303 302
96 96 96 99 102 97 89 89 93 94 97 97 95 92 84 76 77 75 77 263 292 295 290 309 312 313 314 308 306 304 303 298 293 295 292 292 297 296 295 295 298 299 299 303
90 89 88 86 81 78 81 82 82 79 79 77 74 71 67 84 48 53 330 318 318 329 312 312 311 312 317 314 305 302 302 301 292 288 294 293 293 294 294 293 294 295 296 303
78 78 81 83 81 79 77 77 77 74 65 62 59 50 40 32 26 7 332 320 321 329 310 321 315 318 320 313 303 306 304 302 302 297 292 297 297 296 293 293 294 296 300 301
77 76 72 70 66 67 70 72 67 58 65 65 44 29 24 17 0 357 358 340 334 330 329 322 323 311 312 311 313 307 302 301 298 296 298 302 302 299 295 294 295 298 302 306
Height
1426 1420 1419 1422 1425 1428 1430 1432 1443 1438 1434 1426 1425 1427 1432 1436 1438 1443 1446 1449 1451 1453 1457 1459 1461 1464 1466 1467 1469 1472 1476 1479 1479 1480 1484 1484 1484 1484 1484 1484 1485 1487 1489 1490
1423 1418 1417 1420 1416 1418 1419 1421 1424 1426 1426 1420 1422 1424 1430 1435 1439 1441 1444 1447 1450 1452 1455 1458 1460 1463 1464 1465 1466 1470 1472 1476 1475 1477 1479 1480 1481 1481 1482 1483 1484 1485 1486 1488
1429 1418 1419 1426 1418 1416 1415 1413 1417 1426 1420 1419 1418 1420 1427 1430 1436 1439 1443 1446 1449 1453 1455 1457 1459 1461 1463 1464 1467 1468 1470 1471 1472 1474 1475 1476 1478 1479 1480 1481 1483 1484 1486 1488
1428 1433 1440 1415 1410 1410 1413 1410 1410 1411 1413 1414 1413 1417 1422 1427 1431 1439 1442 1446 1449 1452 1455 1456 1458 1459 1462 1464 1465 1466 1468 1469 1471 1472 1473 1475 1476 1477 1479 1480 1481 1483 1485 1487
1428 1427 1417 1406 1404 1408 1408 1407 1403 1404 1405 1409 1411 1419 1425 1428 1431 1437 1442 1445 1448 1450 1452 1454 1457 1458 1461 1463 1464 1466 1467 1469 1470 1472 1473 1475 1476 1477 1479 1480 1482 1484 1485 1487
1422 1425 1425 1406 1398 1400 1401 1408 1398 1398 1400 1405 1411 1421 1414 1425 1430 1436 1441 1443 1445 1448 1451 1453 1456 1458 1460 1462 1464 1465 1467 1468 1470 1472 1474 1474 1474 1476 1477 1479 1480 1481 1482 1484
1418 1414 1402 1392 1390 1392 1413 1405 1393 1394 1399 1403 1406 1411 1414 1422 1428 1433 1438 1441 1443 1447 1450 1452 1455 1457 1459 1461 1463 1465 1466 1468 1469 1469 1470 1471 1473 1474 1476 1477 1478 1478 1479 1481
1411 1412 1414 1388 1392 1400 1393 1392 1395 1396 1398 1401 1405 1412 1414 1419 1425 1430 1434 1437 1441 1444 1448 1451 1454 1456 1458 1460 1461 1462 1463 1465 1467 1468 1470 1472 1473 1475 1476 1477 1477 1477 1477 1478
1392 1390 1389 1387 1387 1389 1389 1388 1391 1394 1395 1398 1404 1409 1414 1417 1423 1427 1431 1436 1440 1443 1446 1449 1452 1454 1456 1458 1460 1461 1463 1465 1467 1469 1471 1473 1474 1475 1476 1475 1475 1474 1473 1473
1391 1386 1383 1383 1385 1385 1386 1387 1389 1390 1392 1396 1401 1406 1411 1415 1420 1423 1429 1433 1437 1440 1444 1447 1450 1453 1454 1456 1458 1460 1462 1464 1466 1468 1469 1471 1473 1473 1473 1471 1470 1470 1470 1469
1386 1384 1384 1384 1384 1383 1384 1387 1388 1389 1390 1393 1398 1403 1406 1410 1416 1421 1425 1430 1434 1437 1441 1444 1448 1450 1452 1454 1456 1458 1459 1461 1463 1465 1467 1468 1468 1467 1467 1467 1467 1466 1465 1464
1382 1379 1380 1378 1378 1378 1380 1381 1384 1386 1387 1391 1394 1400 1404 1407 1412 1417 1421 1426 1431 1435 1438 1441 1444 1447 1450 1452 1454 1456 1457 1459 1460 1462 1463 1465 1465 1464 1463 1463 1462 1462 1461 1459
1379 1381 1380 1380 1378 1378 1376 1377 1380 1383 1386 1388 1392 1398 1403 1406 1409 1414 1419 1425 1429 1433 1438 1441 1444 1446 1448 1450 1452 1455 1456 1457 1459 1460 1460 1460 1461 1461 1463 1460 1458 1456 1455 1453
1377 1378 1377 1377 1377 1377 1376 1376 1378 1381 1383 1388 1392 1398 1404 1408 1410 1415 1420 1425 1430 1433 1437 1440 1443 1445 1448 1450 1452 1455 1456 1457 1458 1458 1458 1457 1457 1457 1457 1458 1457 1457 1452 1450
1375 1376 1377 1376 1376 1374 1374 1374 1377 1380 1382 1386 1392 1398 1404 1410 1414 1419 1423 1426 1429 1433 1436 1438 1440 1443 1447 1450 1452 1455 1457 1456 1456 1456 1455 1454 1454 1454 1453 1453 1453 1451 1449 1447
1374 1374 1374 1374 1374 1374 1374 1372 1377 1380 1385 1387 1390 1397 1403 1409 1414 1417 1422 1426 1429 1432 1433 1437 1441 1445 1448 1450 1453 1453 1454 1454 1453 1453 1453 1452 1452 1451 1450 1449 1448 1447 1446 1443
1374 1372 1372 1372 1373 1373 1377 1372 1378 1381 1386 1390 1391 1394 1403 1407 1409 1410 1414 1423 1429 1431 1434 1438 1441 1446 1450 1451 1452 1452 1451 1451 1451 1451 1451 1450 1448 1447 1446 1445 1444 1442 1441 1438
1375 1373 1369 1370 1371 1374 1373 1375 1375 1379 1384 1388 1393 1391 1394 1403 1409 1415 1420 1425 1429 1432 1434 1437 1442 1445 1448 1451 1451 1450 1449 1448 1448 1448 1447 1446 1444 1443 1441 1440 1439 1436 1435 1434
1376 1375 1371 1371 1374 1374 1375 1376 1377 1380 1384 1386 1388 1396 1398 1405 1412 1419 1424 1426 1428 1432 1437 1440 1443 1444 1446 1447 1448 1447 1446 1445 1445 1444 1443 1441 1440 1439 1437 1435 1433 1430 1430 1428
1376 1376 1373 1372 1375 1377 1377 1379 1382 1389 1391 1395 1396 1401 1404 1410 1413 1421 1427 1427 1430 1434 1438 1441 1443 1444 1445 1445 1444 1443 1443 1443 1442 1441 1439 1438 1436 1434 1432 1430 1428 1427 1426 1424
1379 1379 1379 1379 1383 1382 1385 1390 1390 1394 1399 1404 1407 1411 1410 1411 1420 1426 1428 1428 1432 1435 1438 1440 1442 1443 1443 1443 1442 1440 1440 1439 1438 1436 1435 1434 1432 1431 1429 1427 1425 1423 1422 1419
1386 1386 1388 1391 1391 1392 1396 1397 1402 1407 1409 1410 1415 1418 1415 1420 1426 1428 1430 1432 1435 1437 1440 1440 1441 1441 1441 1440 1439 1437 1436 1435 1434 1433 1432 1430 1428 1426 1424 1422 1421 1419 1416 1413
1395 1398 1399 1401 1404 1406 1406 1408 1412 1415 1416 1418 1420 1422 1423 1427 1430 1432 1433 1435 1437 1438 1439 1439 1439 1439 1438 1437 1435 1434 1433 1432 1431 1430 1428 1426 1424 1421 1420 1418 1416 1413 1411 1408
1407 1409 1411 1413 1414 1414 1415 1419 1421 1423 1424 1426 1427 1429 1430 1432 1433 1434 1436 1436 1437 1438 1438 1437 1436 1435 1434 1433 1432 1431 1430 1429 1427 1426 1424 1421 1419 1417 1415 1413 1410 1408 1405 1402
1417 1418 1419 1419 1420 1423 1425 1427 1428 1429 1430 1431 1432 1433 1435 1435 1437 1437 1437 1437 1436 1437 1436 1435 1433 1432 1431 1430 1429 1428 1426 1425 1423 1420 1418 1416 1414 1412 1410 1408 1405 1403 1399 1395
1426 1426 1427 1427 1429 1430 1432 1432 1433 1435 1436 1436 1436 1436 1436 1437 1437 1437 1436 1436 1435 1434 1434 1433 1431 1429 1428 1428 1426 1424 1423 1421 1419 1416 1414 1412 1410 1408 1406 1403 1400 1397 1393 1390
1433 1434 1434 1434 1435 1435 1436 1436 1437 1437 1438 1439 1440 1439 1439 1438 1437 1437 1436 1436 1435 1434 1433 1432 1430 1428 1426 1424 1422 1421 1419 1416 1414 1411 1409 1406 1404 1402 1400 1397 1394 1390 1387 1384